Regional Weather Roundup
Issued by NWS Jackson, KY

Home | Current Version | Previous Version | Graphics & Text | Print | Product List | Glossary On
Versions: 1 2 3 4 5 6 7 8 9 10 11 12 13 14 15 16 17 18 19 20 21 22 23 24 25 26 27 28 29 30 31 32 33 34 35 36 37 38 39 40 41 42 43 44 45 46 47 48 49 50
000
ASUS43 KJKL 262019
RWRJKL

EAST KENTUCKY HOURLY WEATHER ROUNDUP
NATIONAL WEATHER SERVICE JACKSON KY
300 PM EST MON JAN 26 2015

NOTE: "FAIR" INDICATES FEW OR NO CLOUDS BELOW 12,000 FEET WITH
NO SIGNIFICANT WEATHER AND/OR OBSTRUCTIONS TO VISIBILITY.

* THESE REPORTS ARE NOT UNDER NWS QUALITY CONTROL AND MAY NOT
  REPORT WEATHER SUCH AS PRECIPITATION AND FOG.

KYZ079-080-083-085-087-088-110-112-115-119-120-262100
...EASTERN KENTUCKY...

CITY           SKY/WX    TMP DP  RH WIND       PRES   REMARKS
JACKSON        CLOUDY    25  22  88 VRB7      29.83R WCI  17
LONDON         CLOUDY    29  21  72 NW9       29.87S WCI  20
SOMERSET*      CLOUDY    30  27  86 NW9       29.92R WCI  22
MONTICELLO*    CLOUDY    30  27  89 NW12      29.94S WCI  20
MIDDLESBORO*   CLOUDY    30  26  86 NW6       29.86S WCI  24
HARLAN APT*    CLOUDY    28  27  93 W10       29.83R WCI  19
HAZARD APT*    CLOUDY    27  25  93 W12       29.84  WCI  16
BLACK MTN*       N/A     19  19 100 E1          N/A
BIG SANDY*     CLOUDY    26  23  89 W9        29.82R WCI  16
MOREHEAD APT*  CLOUDY    27  21  80 W7        29.89R WCI  19
ASHLAND*       CLOUDY   N/A N/A N/A NW7       29.83R
$$

KYZ035-036-041-042-044-050-067-078-099-262100
...CENTRAL KENTUCKY...

CITY           SKY/WX    TMP DP  RH WIND       PRES   REMARKS
MT STERLING*   CLOUDY    28  25  86 NW9       29.88S WCI  20
FLEMING/MASON* CLOUDY    25  21  83 W8        29.88S WCI  17
DANVILLE*      CLOUDY    30  25  80 NW10G16   29.90F WCI  21
RICHMOND*      CLOUDY    28  25  86 NW10G18   29.88S WCI  19
LEXINGTON      CLOUDY    27  22  81 W9        29.88F WCI  18
FRANKFORT      CLOUDY    28  21  75 W10       29.89F WCI  19
$$

KYZ091>093-OHZ055-061-077-WVZ005-015-034-035-042-262100
...SOUTHERN OHIO/WEST VIRGINIA...

CITY           SKY/WX    TMP DP  RH WIND       PRES   REMARKS
COVINGTON      MOSUNNY   29  18  63 NW8       29.87F WCI  21
COLUMBUS       PTSUNNY   22  14  71 N13       29.83R WCI  10
DAYTON         PTSUNNY   19  12  74 NW10      29.87F WCI   7
WILMINGTON     MOSUNNY   22  15  75 NW13      29.84F WCI  10
HUNTINGTON     CLOUDY    26  22  84 W5G17     29.82R WCI  20
CHARLESTON     LGT SNOW  27  23  85 W8        29.78R FOG     WCI  19
PINEVILLE*     LGT SNOW  32  30  93 MISG      29.76S
BECKLEY        LGT SNOW  29  25  85 W10       29.66R FOG     WCI  20
BLUEFIELD      FLURRIES  30  25  81 W14G22    29.65R WCI  19
$$

VAZ002-007-008-TNZ017-027-036-066-071-262100
...SOUTHWEST VIRGINIA/EAST TENNESSEE...

CITY           SKY/WX    TMP DP  RH WIND       PRES   REMARKS
WISE*          CLOUDY    28  27  93 W9        29.72R WCI  20
JONESVILLE*    CLOUDY    28  27  93 W8        29.84R WCI  20
ABINGDON*      LGT SNOW  33  29  85 N12G17    29.71R WCI  24
BRISTOL        FLURRIES  34  28  79 W14       29.75S WCI  25
KNOXVILLE      CLOUDY    33  28  81 W9        29.87S WCI  25
OAK RIDGE      CLOUDY    36  27  69 N3        29.89S
CROSSVILLE     CLOUDY    28  25  88 NW10      29.87S FOG     WCI  19
NASHVILLE      CLOUDY    35  28  75 VRB5      29.96F WCI  31
$$

...KEY TO REMARKS...
VSB - VISIBILITY IN MILES
WCI - WIND CHILL INDEX
HX  - HEAT INDEX

$$


USA.gov is the U.S. government's official web portal to all federal, state and local government web resources and services.